Shreveport, LA

9:56 AM CDT on March 28, 2017 (GMT -0500)
Shreveport Regional

Weather History for KSHV - April, 2014

Change the Weather History Date:

Saturday, April 26, 2014

  Actual Average Record
Temperature  
Mean Temperature 70 °F 68 °F  
Max Temperature 88 °F 79 °F 92 °F (1882)
Min Temperature 52 °F 57 °F 41 °F (1910)
Degree Days  
Heating Degree Days 0 1  
Month to date heating degree days 102 82  
Since 1 July heating degree days 2535 2215  
Cooling Degree Days 5 4  
Month to date cooling degree days 79 75  
Year to date cooling degree days 98 116  
Growing Degree Days 20 (Base 50)    
Moisture  
Dew Point 59 °F    
Average Humidity 66    
Maximum Humidity 83    
Minimum Humidity 48    
Precipitation  
Precipitation 0.00 in 0.15 in 2.80 in (1915)
Month to date precipitation 3.96 3.63  
Year to date precipitation 11.42 16.72  
Snow  
Snow 0.00 in - - ()
Month to date snowfall 0.0  
Since 1 July snowfall 1.0  
Snow Depth 0.00 in    
Sea Level Pressure  
Sea Level Pressure 29.84 in    
Wind  
Wind Speed 8 mph (SSE)    
Max Wind Speed 20 mph    
Max Gust Speed 28 mph    
Visibility 10 miles    
Events      
T = Trace of Precipitation, MM = Missing Value Source: NWS Daily Summary

Daily Weather History Graph

Daily Weather History Graph

Search for Another Location

Airport or City:

Trip Planner

Search our weather history database for the weather conditions in past years. The results will help you decide how hot, cold, wet, or windy it might be!

Date:

Astronomy

Apr. 26, 2014 Rise Set
Actual Time 6:33 AM CDT 7:52 PM CDT
Civil Twilight 6:07 AM CDT 8:18 PM CDT
Nautical Twilight 5:37 AM CDT 8:49 PM CDT
Astronomical Twilight 5:05 AM CDT 9:21 PM CDT
Moon 4:48 AM CDT (4/26) 5:30 PM CDT (4/26)
Length of Visible Light 14h 10m
Length of Day
13h 19m
Waning Crescent, 8% of the Moon is Illuminated
Apr 26
Waning Crescent
Apr 29
New
May 6
First Quarter
May 14
Full
May 21
Last Quarter

Hourly Weather History & Observations

Time (CDT) Temp. Heat Index Dew Point Humidity Pressure Visibility Wind Dir Wind Speed Gust Speed Precip Events Conditions
12:56 AM 57.0 °F - 48.0 °F 72% 29.93 in 10.0 mi Calm Calm - N/A   Scattered Clouds
1:56 AM 57.0 °F - 48.0 °F 72% 29.92 in 10.0 mi Calm Calm - N/A   Scattered Clouds
2:56 AM 54.0 °F - 48.0 °F 80% 29.90 in 10.0 mi Calm Calm - N/A   Scattered Clouds
3:56 AM 55.9 °F - 48.0 °F 75% 29.89 in 10.0 mi SE 3.5 mph - N/A   Partly Cloudy
4:56 AM 55.9 °F - 48.0 °F 75% 29.88 in 10.0 mi Calm Calm - N/A   Clear
5:56 AM 55.9 °F - 46.9 °F 72% 29.89 in 10.0 mi SE 3.5 mph - N/A   Clear
6:56 AM 55.0 °F - 48.0 °F 77% 29.89 in 10.0 mi SE 3.5 mph - N/A   Clear
7:56 AM 61.0 °F - 52.0 °F 72% 29.90 in 10.0 mi SE 4.6 mph - N/A   Clear
8:56 AM 66.9 °F - 54.0 °F 63% 29.89 in 10.0 mi SSE 9.2 mph - N/A   Partly Cloudy
9:56 AM 73.0 °F - 59.0 °F 61% 29.89 in 10.0 mi South 8.1 mph - N/A   Partly Cloudy
10:56 AM 77.0 °F - 63.0 °F 62% 29.89 in 10.0 mi South 9.2 mph - N/A   Scattered Clouds
11:56 AM 81.0 °F 82.7 °F 64.9 °F 58% 29.88 in 10.0 mi Variable 6.9 mph 17.3 mph N/A   Mostly Cloudy
12:56 PM 82.9 °F 84.4 °F 64.0 °F 53% 29.86 in 10.0 mi South 9.2 mph 17.3 mph N/A   Mostly Cloudy
1:56 PM 86.0 °F 87.6 °F 64.9 °F 49% 29.83 in 10.0 mi South 8.1 mph 17.3 mph N/A   Mostly Cloudy
2:56 PM 88.0 °F 90.7 °F 66.9 °F 49% 29.81 in 10.0 mi SSE 12.7 mph - N/A   Mostly Cloudy
3:56 PM 88.0 °F 90.3 °F 66.0 °F 48% 29.79 in 10.0 mi SSE 12.7 mph 21.9 mph N/A   Mostly Cloudy
4:56 PM 86.0 °F 87.6 °F 64.9 °F 49% 29.78 in 10.0 mi SSE 18.4 mph 27.6 mph N/A   Mostly Cloudy
5:56 PM 84.0 °F 86.5 °F 66.9 °F 56% 29.77 in 10.0 mi South 11.5 mph 20.7 mph N/A   Mostly Cloudy
6:56 PM 82.0 °F 84.5 °F 66.9 °F 60% 29.77 in 10.0 mi South 13.8 mph - N/A   Overcast
7:56 PM 79.0 °F - 66.9 °F 66% 29.77 in 10.0 mi South 12.7 mph - N/A   Overcast
8:56 PM 77.0 °F - 68.0 °F 74% 29.77 in 10.0 mi SSE 9.2 mph - N/A   Overcast
9:56 PM 75.0 °F - 68.0 °F 79% 29.78 in 10.0 mi SSE 9.2 mph - N/A   Overcast
10:56 PM 75.0 °F - 66.9 °F 76% 29.76 in 10.0 mi SSE 11.5 mph - N/A   Mostly Cloudy
11:56 PM 73.9 °F - 64.9 °F 73% 29.75 in 10.0 mi SSE 11.5 mph - N/A   Mostly Cloudy